"Pseudo-MPEC" for A10gFB1

Created 2019 Oct 21 3:07:03 UT using Find_Orb

Click here for an explanation of pseudo-MPECs

 
 Astrometry: 
     A10gFB1  C2019 10 08.61443609 21 57.52 -06 39 48.6    ~A8Iq 18.99oVNEOCPT08
     A10gFB1  C2019 10 08.61768009 21 57.86 -06 39 53.6    ~A8Iq 18.93oVNEOCPT08
     A10gFB1  C2019 10 08.62358309 21 58.56 -06 40 02.9    ~A8Iq 19.11oVNEOCPT08
     A10gFB1  C2019 10 08.63135809 21 59.52 -06 40 14.1    ~A8Iq 19.02oVNEOCPT08
     A10gFB1 KC2019 10 09ff0Cf^U`Elp(K.y.1A:ILXKQ^.4^[BuGb+DNjShiF^qKFKY2Fs[sL01
     A10gFB1 KC2019 10 09Q-Jjo8N*4IQv.OJR)8B)PmTPrgbsaDll+p\b0*v35rBvt!hp*r8HL01
     A10gFB1 KC2019 10 09jecA/U3n%pnAZR=nAij_?aaiEY-^\wG;_0pr$PBLq#$iKE2o^R3EL01
     A10gFB1 KC2019 10 099VEMc]c;Astrometry!0V:tfR0/X\f6Kk5]:siMs]*dG!MV7Lp1-L01
     A10gFB1 KC2019 10 09\==EOyee$0JM+xB\,]sYTOpy[36xredacted;+[M^!lc1F%\Nd4NL01
     A10gFB1 9C2019 10 10-JGm-@M;JwBIY/91nu9SP+a,uCZ_1.F[U:CPA^Z#wj=/^lkB--]9G40
     A10gFB1 9C2019 10 10('sBl\BN76qgW/APjE'Zjr.ld*Kgm.HA*click;#Lin=:6NIW$9VG40
     A10gFB1 |C2019 10 10,MrvZidCiRjQ1[;hb^7%xMS^X;oCg:C]af*q\s\=4%%M^Ki8''JCH06
     A10gFB1 |C2019 10 10vh@d(cf@$,bKqDx.f3u9OZ?rLFyvivdc:FLf*2gm78k5F-V3]o=4H06
     A10gFB1 |C2019 10 104i[4?$0)hhereJOn*pyp]Fbu7Qvy-c\#Sk:BL(a+lDMpMACtK@gVH06
     A10gFB1 KC2019 10 122,1om]OFNDBUL]`s'3iT.Dx)IX#645.tF4Dmqs9=[UDroqy\`.D^I47
     A10gFB1 KC2019 10 12`M-+C-@R'A@K48y(lpcGnfor\pe5,LwP0]XrVc;c]GD$hJmZIuL?I47
     A10gFB1 KC2019 10 128shNCSOY;%DS]/F1r^YG@/'i^ScwQK#^CR_W8o2GoCsSip#0Y^SkI47
     A10gFB1 KC2019 10 12;KG@N,d$#8@oaRVOid,X4/BmHv198e`!9F?tJB2D7MP-)YPGe.[OQ62
     A10gFB1 KC2019 10 12+Ow':6sA!YBoYai]]U[N(15eke30sn_Xw\_8MY3Nl/wLJfc-uE[#Q62
     A10gFB1 KC2019 10 120JCU5Vfb$KAVbH59[=,j;2:[u!W@64+`1`uAL]R$V:_$)x9F*];pQ62
     A10gFB1 KC2019 10 13wQlRbfhvqNbX#)^`)j?_^$=gVVh;9]1j4WBvDdMo85'ofVHVOa;-850
     A10gFB1 KC2019 10 13%\c5J$).jMvGJsE4;'5BvSb,Us5=hBvJ`eOH7.v30`Uh`JoOmF]/850
     A10gFB1 KC2019 10 13,8\B/Jd_OJ%$iMoQ#(aWC=F]go34opxbZxr_b14g680aaAi#yf@y850
     A10gFB1 9C2019 10 14Jan]Pd-N@obAGZS[GCM1a4s]XP6Dp5H1]_aGligbR_]y@65g4bSuG40
     A10gFB1 9C2019 10 14Q2/VH-]V7AoSBbBd$tI;NiR=1@%d;Vj(?FPMLh]cc,p+n9ILgshoG40
     A10gFB1 KC2019 10 14t2M:8k/H[7B[BI-0`KMlA2;4\A//KK]^SQPx;RZ,toNC#8)(eP#x850
     A10gFB1 KC2019 10 14k842nCv?H3#Ue-T`hfZ];X:-;BskK6l_I`(yY*27`wD:W*(xeemw850
     A10gFB1 KC2019 10 148M*Vx@H]Cb?vBJ/Y0`W$rb,p'Kc$+=bkiug'rOoKJ$^486Xx`9JI850
     A10gFB1 KC2019 10 14=Ug3=2h6!c#\[,]P2-.JvMf4=xg$77'.FHvZdT6M1rbqUm)=!TmN850
     A10gFB1 KC2019 10 14t[FMHJ_+M`TI$hgX$nCQV:`ID#%Rp-,SSTWr:cyTqX_ij]3omMUq850
     A10gFB1 KC2019 10 14K3v#])*i]7Dn/8W.lN0Jhyn,6'!*T0UCQ][4AJKYH@h`wQRaVn;J850
     A10gFB1 KC2019 10 17Q+U5:eD@/uWj0yn5X=U#-Q03m@[.explanationE[9*6)DUM#vbgL01
     A10gFB1 KC2019 10 17OWatXaQ?m;R`63H5Ha?8Ddmr(2u$t-+nYP0eo#!=ph?+6K(%5vwqL01
     A10gFB1 pC2019 10 17bLP6h]B`,!7@,sG.j=v/#giNon=EEh-qD9V@Tbuk$QQ=9A4j*7WsL01
     A10gFB1 KC2019 10 17?h6Lg%Y_CWRyw,;MQsi)J,BEt2)2C#QJEhv2G/KjgXD9Ep3hy7tuL01
     A10gFB1 KC2019 10 177I.@[+wfUv.+cU;h\FxTe7[Jh4=/SfqM!#%g2!vdQYS+oS)IA#SEL01
     A10gFB1 KC2019 10 17lg;cQH)Hv*KUq^VGVuS5(^*[B-T=1aWOXt#(V-.1XFBZ=3kyKOZmL01
     A10gFB1 KC2019 10 17\hdGP'$Y_x_?UAPO;uu]/QTBBSGq4oTVY!,`Zey2$sBFI^Od3%BVL01
     A10gFB1 KC2019 10 19.49103 09 42 56.59 -11 11 09.6    ~AJCb 19.2 RoNEOCP291
     A10gFB1 KC2019 10 19.49552 09 42 57.08 -11 11 16.0    ~AJCb 19.4 RoNEOCP291
     A10gFB1 KC2019 10 19.50002 09 42 57.58 -11 11 22.8    ~AJCb 19.2 RoNEOCP291
     A10gFB1  C2019 10 20.47917 09 44 45.31 -11 35 31.8    ~AKCb 19.8 VoNEOCP691
     A10gFB1 KC2019 10 20.48491 09 44 45.93 -11 35 39.5    ~AKCb 19.0 RoNEOCP291
     A10gFB1  C2019 10 20.48816 09 44 46.31 -11 35 45.1    ~AKCb 19.9 VoNEOCP691
     A10gFB1 KC2019 10 20.48944 09 44 46.43 -11 35 46.3    ~AKCb 19.3 RoNEOCP291
     A10gFB1 KC2019 10 20.49396 09 44 46.92 -11 35 53.1    ~AKCb 19.0 RoNEOCP291
     A10gFB1  C2019 10 20.49714 09 44 47.24 -11 35 57.5    ~AKCb 19.6 VoNEOCP691

Station data:
(291) LPL/Spacewatch II  (N31.961669 W111.599905)  US/Arizona.  Observers J.
   V. Scotti, R. S. McMillan. 1.8-m f/2.7 reflector + CCD.
(691) Steward Observatory, Kitt Peak - Spacewatch  (N31.962174 W111.600327)
   US/Arizona.  Observer J. V. Scotti. 0.9-m f/3 reflector + CCD.
(850) Cordell-Lorenz Observatory, Sewanee  (N35.204094 W85.919800)
   US/Tennessee. 0.3-m Schmidt-Cassegrain.
(G40) Slooh.com Canary Islands Observatory  (N28.299720 W16.508260)  Canary
   Islands (Spain).  Observers G. Gašparović, Y. Chen. 0.43-m f/6.8 Corrected
   Dall-Kirkham + CCD.
(H06) RAS Observatory, Mayhill  (N32.903325 W105.528700)  US/New
   Mexico.  Observers E. Guido, G. Sostero, V. Gonano, L. Donato.
(I47) Pierre Auger Observatory, Malargüe  (S35.495442 W69.449700)  Argentina.
(L01) Višnjan Observatory, Tičan  (N45.290900 E13.749300)  Croatia.
   Observers K. Korlević, E. Pettarin. Measurer E. Pettarin. 1.0-m f/2.9
   reflector + CCD.
(Q62) iTelescope Observatory, Siding Spring  (S31.273289 E149.064420)
   Australia/NSW. 0.50-m f/6.8 astrograph + CCD + focal reducer, 0.70-m f/6.6
   astrograph + CCD.
(T08) ATLAS-MLO, Mauna Loa  (N19.535772 W155.576400)  US/Hawaii.  Observers
   L. Denneau, A. Heinze, H. Weiland, J. Tonry, H. Flewelling, A.
   Fitzsimmons, D. Young, B. Stalder. Measurers L. Denneau, A. Heinze, J.
   Tonry. 0.5-m f/2.0 Schmidt + CCD.

Orbital elements:  A10gFB1
   Perihelion 2019 Aug 1.353022 +/- 0.833 TT =  8:28:21 (JD 2458696.853022)
Epoch 2019 Oct 20.0 TT = JDT 2458776.5   Earth MOID: 0.5521   Ma: 0.0309
M   3.37653302 +/- 0.44             (J2000 ecliptic)          AutoNEOCP
n   0.04239373 +/- 0.00589          Peri.  189.80295 +/- 0.6
a   8.14582202 +/- 0.753            Node   247.76627 +/- 0.18
e   0.8118952 +/- 0.0167            Incl.   33.43220 +/- 0.013
P  23.25                   H 15.0   G  0.15   U  9.3  
q 1.53226804 +/- 0.00982    Q 14.7593760 +/- 2.38
From 47 observations 2019 Oct. 8-20; mean residual 0".48
Residuals in arcseconds: 
191008 T08  .20+  .47+    191012 I47  1.2+  .32-    191017 L01  .06+  .06+    
191008 T08  .54-  .38+    191012 Q62  .77+  .16-    191017 L01  .49-  .29-    
191008 T08  .67-  .00     191012 Q62  .85+  .11-    191017 L01  .66-  .72-    
191008 T08  .27-  .56+    191012 Q62  .82+  .06+    191017 L01  .14+  .07-    
191009 L01  .32+  .34-    191013 850  .56+  .34-    191017 L01  .04+  .19+    
191009 L01  .19+  .44-    191013 850  .74-  .21-    191017 L01  .59-  .18+    
191009 L01  .48-  .13+    191013 850  1.3-  .12+    191019 291  .23+  .13-    
191009 L01  .39+  .60+    191014 G40  .86-  .72+    191019 291  .20+  .14+    
191009 L01  .11+  .19-    191014 G40  1.1-  .05-    191019 291  .30+  .02+    
191010 G40  .82-  .23-    191014 850  .68-  .02+    191020 691  .08+  .49-    
191010 G40  .37-  .05-    191014 850  .81-  .87+    191020 291  .02+  .32+    
191010 H06  .28+  .04+    191014 850  .36-  .58+    191020 691  .42+  .47-    
191010 H06  .46+  .35-    191014 850  .15+  .12+    191020 291  .14+  .23+    
191010 H06  .50+  .65-    191014 850  .82-  .30+    191020 291  .12+  .12+    
191012 I47  .76+  .55-    191014 850  .68+  .45-    191020 691  .25-  .43+    
191012 I47  .76+  .27+    191017 L01  .08-  .15+    

Ephemerides (geocentric):
Date (UTC) HH   RA              Dec         delta   r     elong  mag " sig PA
---- -- -- --  -------------   -----------  ------ ------ -----  --- ---- ---
2019 10 21 03  09 45 55.646   -11 51 22.44  2.1549 1.8249  57.5 19.2 .157 172
2019 10 21 04  09 46 00.183   -11 52 23.91  2.1549 1.8252  57.5 19.2 .161 173
2019 10 21 05  09 46 04.718   -11 53 25.38  2.1548 1.8255  57.6 19.2 .165 173
2019 10 21 06  09 46 09.251   -11 54 26.84  2.1548 1.8257  57.6 19.2 .169 174
2019 10 21 07  09 46 13.783   -11 55 28.30  2.1548 1.8260  57.6 19.2 .173 174
2019 10 21 08  09 46 18.313   -11 56 29.74  2.1548 1.8263  57.6 19.2 .177 174
2019 10 21 09  09 46 22.841   -11 57 31.19  2.1548 1.8265  57.6 19.2 .181 175
2019 10 21 10  09 46 27.368   -11 58 32.62  2.1547 1.8268  57.6 19.2 .186 175
2019 10 21 11  09 46 31.893   -11 59 34.05  2.1547 1.8271  57.6 19.2 .190 176
2019 10 21 12  09 46 36.416   -12 00 35.47  2.1547 1.8273  57.7 19.2 .194 176
2019 10 21 13  09 46 40.937   -12 01 36.89  2.1547 1.8276  57.7 19.2 .198 176
2019 10 21 14  09 46 45.457   -12 02 38.30  2.1547 1.8279  57.7 19.2 .203 176
2019 10 21 15  09 46 49.975   -12 03 39.70  2.1546 1.8281  57.7 19.2 .207 177
2019 10 21 16  09 46 54.491   -12 04 41.10  2.1546 1.8284  57.7 19.2 .212 177
2019 10 21 17  09 46 59.006   -12 05 42.49  2.1546 1.8287  57.7 19.2 .216 177
2019 10 21 18  09 47 03.518   -12 06 43.88  2.1546 1.8290  57.8 19.2 .221 178
2019 10 21 19  09 47 08.030   -12 07 45.26  2.1546 1.8292  57.8 19.2 .225 178
2019 10 21 20  09 47 12.539   -12 08 46.63  2.1545 1.8295  57.8 19.2 .230 178
2019 10 21 21  09 47 17.047   -12 09 48.00  2.1545 1.8298  57.8 19.2 .235 178
2019 10 21 22  09 47 21.552   -12 10 49.36  2.1545 1.8300  57.8 19.2 .239 179
2019 10 21 23  09 47 26.057   -12 11 50.71  2.1545 1.8303  57.8 19.2 .244 179
2019 10 22 00  09 47 30.559   -12 12 52.06  2.1545 1.8306  57.9 19.2 .249 179
2019 10 22 01  09 47 35.060   -12 13 53.40  2.1544 1.8308  57.9 19.2 .254 179
2019 10 22 02  09 47 39.559   -12 14 54.73  2.1544 1.8311  57.9 19.2 .259 179
2019 10 22 03  09 47 44.056   -12 15 56.06  2.1544 1.8314  57.9 19.2 .264   0
2019 10 22 04  09 47 48.552   -12 16 57.38  2.1544 1.8316  57.9 19.2 .269   0
2019 10 22 05  09 47 53.045   -12 17 58.69  2.1543 1.8319  57.9 19.2 .274   0
2019 10 22 06  09 47 57.538   -12 19 00.00  2.1543 1.8322  58.0 19.2 .279   0
2019 10 22 07  09 48 02.028   -12 20 01.30  2.1543 1.8325  58.0 19.2 .284   0
2019 10 22 08  09 48 06.517   -12 21 02.60  2.1543 1.8327  58.0 19.2 .289   0
2019 10 22 09  09 48 11.004   -12 22 03.89  2.1543 1.8330  58.0 19.2 .294   0
2019 10 22 10  09 48 15.489   -12 23 05.17  2.1542 1.8333  58.0 19.2 .300   1
2019 10 22 11  09 48 19.972   -12 24 06.45  2.1542 1.8335  58.0 19.2 .305   1
2019 10 22 12  09 48 24.454   -12 25 07.72  2.1542 1.8338  58.1 19.2 .310   1
2019 10 22 13  09 48 28.934   -12 26 08.98  2.1542 1.8341  58.1 19.2 .316   1
2019 10 22 14  09 48 33.412   -12 27 10.24  2.1542 1.8343  58.1 19.2 .321   1
2019 10 22 15  09 48 37.889   -12 28 11.48  2.1541 1.8346  58.1 19.2 .327   1
2019 10 22 16  09 48 42.364   -12 29 12.73  2.1541 1.8349  58.1 19.2 .332   1
2019 10 22 17  09 48 46.837   -12 30 13.96  2.1541 1.8352  58.1 19.2 .338   1
2019 10 22 18  09 48 51.308   -12 31 15.20  2.1541 1.8354  58.2 19.2 .343   2
2019 10 22 19  09 48 55.778   -12 32 16.42  2.1541 1.8357  58.2 19.3 .349   2
2019 10 22 20  09 49 00.246   -12 33 17.64  2.1540 1.8360  58.2 19.3 .355   2
2019 10 22 21  09 49 04.712   -12 34 18.85  2.1540 1.8362  58.2 19.3 .360   2
2019 10 22 22  09 49 09.176   -12 35 20.05  2.1540 1.8365  58.2 19.3 .366   2
2019 10 22 23  09 49 13.639   -12 36 21.25  2.1540 1.8368  58.2 19.3 .372   2
2019 10 23 00  09 49 18.100   -12 37 22.44  2.1540 1.8371  58.3 19.3 .378   2
2019 10 23 01  09 49 22.559   -12 38 23.62  2.1539 1.8373  58.3 19.3 .384   2
2019 10 23 02  09 49 27.016   -12 39 24.80  2.1539 1.8376  58.3 19.3 .390   2